Location: Cabeza de los Veneras
(40.2000°N, 5.2000°W)
Time: 10:43:47
(UTC+00:00)

Resurs 01 Rocket - Pass Details

Date: 18 April 2024
Orbit: 631 x 640 km, 97.8° (Epoch: 21 May)

Event Time Altitude Azimuth Distance (km) Brightness Sun altitude
Exits shadow 21:16:36 - 212° (SSW) 2,139 4.2 -23.3°
Reaches altitude 10° 21:16:59 10° 216° (SW) 2,017 4.1 -23.4°
Maximum altitude 21:20:22 22° 266° (W) 1,412 3.8 -23.9°
Drops below altitude 10° 21:23:47 10° 317° (NW) 2,034 5.3 -24.4°
Sets 21:26:27 0° 333° (NNW) 2,949 6.2 -24.8°
